Location: Brussels
(24.2454°S, 30.9645°E)
Time: 00:23:40
(UTC+00:00)

Daily predictions for brighter satellites

Satellite Brightness Start Highest point End
(mag) Time Altitude Azimuth Time Altitude Azimuth Time Altitude Azimuth
Cosmos 2341 Rocket 4.5 00:10:53 58° SE 00:10:53 58° SE 00:16:07 10° S
Cosmos 2227 Rocket 3.0 00:21:02 49° ESE 00:21:02 49° ESE 00:25:33 10° SSE
ATLAS 2AS CENTAUR R/B 4.2 00:28:39 24° SW 00:28:39 24° SW 00:33:29 10° S
H-2A R/B 3.0 00:33:08 40° S 00:33:08 40° S 00:36:23 10° S
Hubble Space Telescope 3.3 00:42:16 15° E 00:42:16 15° E 00:42:56 10° E
SEDSat Delta rocket 4.4 00:42:30 35° SE 00:42:30 35° SE 00:45:27 10° E
ACS3 Solar Sail 2.0 00:40:58 46° NE 00:42:50 71° ESE 00:49:03 10° S
ADEOS II 4.2 00:47:23 14° SW 00:47:23 14° SW 00:48:14 10° SSW
Cosmos 923 Rocket 4.0 00:52:06 78° ESE 00:52:06 78° ESE 00:57:07 10° SSE
NOSS 0 Rocket 4.1 00:47:08 10° SSW 00:53:21 71° ESE 00:59:28 10° NNE
MOZ.5/SAFIR/RUBIN 5/SL-8 4.1 00:49:18 10° SSE 00:53:10 62° SSE 00:53:10 62° SSE
Tiangong 0.7 01:00:30 15° S 01:00:30 15° S 01:01:29 10° SSE
COSMOS 2428 3.0 00:55:34 10° SSW 01:00:02 51° SW 01:00:02 51° SW
Palapa 6 Rocket 4.0 01:03:49 56° WNW 01:05:22 73° N 01:11:50 10° ENE
Cosmos 2263 Rocket 2.2 01:04:42 55° N 01:05:59 79° ENE 01:11:43 10° SSE
Cosmos 1707 Rocket 4.5 01:02:37 10° S 01:06:47 45° E 01:09:12 22° NE
Meteor 2-19 Rocket 4.4 01:04:11 10° SSW 01:10:11 61° W 01:11:07 55° NW
Cosmos 1666 Rocket 4.2 01:11:21 43° SSW 01:11:21 43° SSW 01:14:33 10° S
ARGOS 3.2 01:09:04 17° NNE 01:13:17 80° ESE 01:18:43 10° S
ADEOS Rocket 3.7 01:12:44 40° NW 01:14:55 50° W 01:22:26 10° SSW
Cosmos 2239 Rocket 4.5 01:12:16 30° N 01:15:39 85° E 01:22:03 10° S
PAYLOAD A 4.5 01:11:46 10° NNE 01:16:43 59° ESE 01:21:33 10° S
Cosmos 2297 Rocket 4.1 01:17:55 14° SW 01:17:55 14° SW 01:20:06 10° SSW
Cosmos 1980 3.8 01:15:45 10° SSW 01:21:27 76° ESE 01:27:04 10° NNE
H-2A R/B 4.2 01:18:07 11° NNE 01:21:34 48° ESE 01:25:18 10° S
CZ-2C R/B 2.5 01:18:06 12° NNE 01:22:51 86° ESE 01:27:59 10° S
Delta 2 Rocket 3.6 01:24:26 43° E 01:24:26 43° E 01:26:40 10° ESE
Atlas Centaur 2 2.9 01:20:39 17° WSW 01:27:14 81° SSE 01:34:32 10° ENE
Cosmos 1607 4.4 01:23:38 22° N 01:27:48 59° ENE 01:34:04 10° SE
Cosmos 2228 Rocket 3.3 01:23:40 10° S 01:28:06 68° E 01:32:27 10° NNE
Cosmos 1821 Rocket 4.5 01:28:09 37° WNW 01:29:28 41° W 01:35:29 10° SSW
ATLAS 3B R/B 3.9 01:29:33 10° S 01:35:34 42° ESE 01:41:57 10° NE
Cosmos 1680 Rocket 3.8 01:36:08 38° WNW 01:37:33 47° WSW 01:42:38 10° S
Cosmos 2237 Rocket 2.1 01:31:56 10° SSW 01:37:41 82° WNW 01:43:22 10° NNE
Cosmos 1953 2.0 01:36:44 35° N 01:38:09 81° E 01:41:49 10° S
GPS 2-12 Rocket1 4.2 01:43:23 24° N 01:44:21 26° NNE 01:47:58 10° ENE
SL-08 RB Rocket 3.7 01:52:22 10° N 01:56:42 52° W 02:01:03 10° SSW
Cosmos 1470 Rocket 4.4 01:55:51 27° WNW 01:57:00 30° W 02:00:54 10° SSW
Meteor 2-5 Rocket 4.3 01:51:20 10° S 01:57:13 67° E 02:03:06 10° NNE
Cosmos 1420 Rocket 4.1 01:58:21 10° SSW 02:03:35 78° ESE 02:08:47 10° NNE
Cosmos 724 4.4 01:59:39 19° NW 02:03:47 58° WSW 02:09:27 10° SSE
Cosmos 2227 Rocket 4.0 02:02:51 12° WSW 02:04:16 14° WSW 02:07:01 10° SSW
Cosmos 1048 Rocket 4.0 01:59:24 10° NNW 02:04:43 88° WSW 02:10:08 10° SSE
Cosmos 1933 Rocket 3.5 02:01:04 10° NNW 02:05:19 64° W 02:09:45 10° S
Meteor 1-16 Rocket 4.2 02:02:35 10° N 02:08:17 77° W 02:13:53 10° S
SL-16 R/B 3.0 02:05:18 10° SSE 02:11:27 64° ENE 02:17:33 10° N
Okean 1-7 4.0 02:12:32 10° SW 02:15:57 25° W 02:19:19 10° NW
Hubble Space Telescope 1.5 02:16:31 16° WNW 02:18:55 30° NNW 02:22:19 10° NE
BREEZE-M DEB (TANK) 0.8 02:23:50 11° WSW 02:25:03 59° NW 02:27:22 10° NE
CZ-4C R/B 3.5 02:16:37 10° NNW 02:25:52 78° ENE 02:34:16 10° SSE
ACS3 Solar Sail 3.5 02:25:08 11° WNW 02:26:04 11° W 02:27:39 10° WSW
SEDSat Delta rocket 2.8 02:23:01 10° WSW 02:27:13 62° NNW 02:31:12 10° NE
Cosmos 1869 Rocket 3.8 02:24:22 10° NNW 02:28:36 50° W 02:32:57 10° S
Delta 128 4.0 02:24:35 10° W 02:29:14 57° S 02:33:39 10° ESE
Cosmos 2219 4.4 02:25:05 11° WNW 02:29:19 24° WSW 02:33:57 10° SSW
ARIANE 6 FM1 Upper Stage 2.8 02:25:32 10° NW 02:29:48 67° WSW 02:34:14 10° SSE
Cosmos 1939 Rocket 3.7 02:28:02 10° NNW 02:31:14 26° W 02:34:26 10° SW
Meteor 1-28 Rocket 2.9 02:31:11 10° SSE 02:34:33 85° E 02:37:52 10° N
SL-16 R/B 2.4 02:30:06 10° SSW 02:35:50 81° ESE 02:41:30 10° NNE
CZ-4 R/B 3.9 02:33:42 10° N 02:38:16 53° W 02:42:50 10° SSW
Cosmos 2056 Rocket 3.5 02:38:54 10° SSW 02:44:10 71° WNW 02:49:28 10° N
NOAA 12 4.2 02:38:58 10° N 02:44:11 59° W 02:49:26 10° SSW
H-2A R/B (2) 4.4 02:39:48 10° N 02:44:27 25° ENE 03:00:29 10° ESE
